View from above orbital plane
|
View from above satellite
|
Ground track
|
The orbit data is extracted from the following two-line orbital elements,
1 40057U 14034E 21057.85476021 .00000518 00000-0 79241-4 0 9997
2 40057 98.3095 208.3555 0011880 56.2759 303.9584 14.78077112359201
Epoch (UTC): | 26 February 2021 20:30:51 |
Eccentricity: | 0.0011880 |
inclination: | 98.3095° |
perigee height: | 627 km |
apogee height: | 644 km |
right ascension of ascending node: | 208.3555° |
argument of perigee: | 56.2759° |
revolutions per day: | 14.78077112 |
mean anomaly at epoch: | 303.9584° |
orbit number at epoch: | 35920 |
The dashed part of the orbit path shows where the satellite is in the earth's shadow,
|
|